This is the latest recevied weather packets stored in our database for station/object WP3XM. If no packets are shown the sender has not sent any weather packets the latest 10 day(s).
| Time | Temp. | Humidity | Pressure | Rain* | Wind** | Luminosity | Snow |
|---|---|---|---|---|---|---|---|
| 1777569152 | 28.89° C | 72% | 1014 hPa | 0 mm | - | 789 W/m² | - |
| 1777568848 | 28.89° C | 73% | 1014.3 hPa | 0 mm | - | 843 W/m² | - |
| 1777568545 | 28.89° C | 73% | 1014.1 hPa | 0 mm | - | 370 W/m² | - |
| 1777568241 | 28.89° C | 74% | 1013.9 hPa | 0 mm | - | 865 W/m² | - |
| 1777567939 | 28.89° C | 72% | 1014.3 hPa | 0 mm | - | 459 W/m² | - |
| 1777567635 | 29.44° C | 70% | 1014.3 hPa | 0 mm | - | 442 W/m² | - |
| 1777567332 | 28.89° C | 72% | 1014.3 hPa | 0 mm | - | 948 W/m² | - |
| 1777567031 | 28.89° C | 74% | 1014.2 hPa | 0 mm | - | 486 W/m² | - |
| 1777566728 | 28.89° C | 72% | 1014.2 hPa | 0 mm | - | 647 W/m² | - |
| 1777566426 | 28.89° C | 72% | 1014.3 hPa | 0 mm | - | 659 W/m² | - |
| 1777566123 | 28.89° C | 71% | 1014.3 hPa | 0 mm | - | 603 W/m² | - |
| 1777565818 | 28.89° C | 72% | 1014.3 hPa | 0 mm | - | 646 W/m² | - |
| 1777565514 | 28.89° C | 72% | 1014.3 hPa | 0 mm | - | 831 W/m² | - |
| 1777565210 | 28.89° C | 74% | 1014.4 hPa | 0 mm | - | 482 W/m² | - |
| 1777564907 | 28.89° C | 72% | 1014.4 hPa | 0 mm | - | 369 W/m² | - |
| 1777564602 | 28.89° C | 71% | 1014.6 hPa | 0 mm | - | 386 W/m² | - |
| 1777564298 | 28.89° C | 71% | 1014.5 hPa | 0 mm | - | 471 W/m² | - |
| 1777563995 | 29.44° C | 70% | 1014.6 hPa | 0 mm | - | 1291 W/m² | - |
| 1777563691 | 29.44° C | 69% | 1014.9 hPa | 0 mm | - | 450 W/m² | - |
| 1777563387 | 29.44° C | 69% | 1014.8 hPa | 0 mm | - | 1287 W/m² | - |
| 1777563082 | 28.89° C | 70% | 1014.8 hPa | 0 mm | - | 789 W/m² | - |
| 1777562778 | 28.89° C | 70% | 1014.9 hPa | 0 mm | - | 589 W/m² | - |
| 1777562476 | 28.89° C | 71% | 1014.7 hPa | 0 mm | - | 1000 W/m² | - |
| 1777562173 | 28.89° C | 72% | 1014.9 hPa | 0 mm | - | 772 W/m² | - |
| 1777561871 | 28.89° C | 71% | 1015 hPa | 0 mm | - | 346 W/m² | - |
* Rain latest hour (hover to see other rain measurements)
** Current wind speed in m/s (hover to see current wind gust speed)